• în Republica Moldova
  • Lista ţărilor
  • Pe 7 zile
  • Temperatura apei
  • Hartă satelitară
  • Meteo pe hartă
  • Widget-uri
  • user-avatar
    Intrare

    Meteo pe oră la Lezhe

    Astăzi, 28 Iulie, Vineri

    Timp Temperatura Precipitaţii Vânt Presiune Umiditate
    00:00 +18°C° 0 mm 2 m/s 734 mmHg 77%
    01:00 +17°C° 0 mm 2 m/s 734 mmHg 77%
    02:00 +17°C° 0 mm 2 m/s 735 mmHg 77%
    03:00 +17°C° 0 mm 2 m/s 735 mmHg 77%
    04:00 +17°C° 0 mm 2 m/s 735 mmHg 77%
    05:00 +18°C° 0 mm 2 m/s 735 mmHg 72%
    06:00 +20°C° 0 mm 2 m/s 735 mmHg 66%
    07:00 +23°C° 0 mm 1 m/s 735 mmHg 61%
    08:00 +25°C° 0 mm 2 m/s 736 mmHg 54%
    09:00 +26°C° 0 mm 2 m/s 736 mmHg 47%
    10:00 +28°C° 0 mm 2 m/s 736 mmHg 40%
    11:00 +29°C° 0 mm 2 m/s 736 mmHg 38%
    12:00 +30°C° 0 mm 3 m/s 736 mmHg 37%
    13:00 +31°C° 0 mm 3 m/s 736 mmHg 35%
    14:00 +30°C° 0 mm 3 m/s 736 mmHg 37%
    15:00 +30°C° 0 mm 3 m/s 736 mmHg 39%
    16:00 +30°C° 0 mm 3 m/s 736 mmHg 41%
    17:00 +28°C° 0 mm 2 m/s 736 mmHg 49%
    18:00 +26°C° 0 mm 2 m/s 736 mmHg 57%
    19:00 +23°C° 0 mm 1 m/s 737 mmHg 65%
    20:00 +23°C° 0 mm 1 m/s 737 mmHg 66%
    21:00 +22°C° 0 mm 1 m/s 738 mmHg 67%
    22:00 +22°C° 0 mm 1 m/s 738 mmHg 67%
    23:00 +22°C° 0 mm 1 m/s 738 mmHg 67%

    Mâine, 29 Iulie, Sâmbătă

    Timp Temperatura Precipitaţii Vânt Presiune Umiditate
    00:00 +22°C° 0 mm 1 m/s 739 mmHg 66%
    01:00 +21°C° 0 mm 1 m/s 739 mmHg 65%
    02:00 +21°C° 0 mm 1 m/s 739 mmHg 64%
    03:00 +20°C° 0 mm 2 m/s 739 mmHg 64%
    04:00 +20°C° 0 mm 2 m/s 739 mmHg 64%
    05:00 +23°C° 0 mm 2 m/s 739 mmHg 59%
    06:00 +25°C° 0 mm 1 m/s 739 mmHg 55%
    07:00 +27°C° 0 mm 1 m/s 740 mmHg 51%
    08:00 +29°C° 0 mm 1 m/s 740 mmHg 46%
    09:00 +31°C° 0 mm 1 m/s 740 mmHg 41%
    10:00 +33°C° 0 mm 1 m/s 740 mmHg 36%
    11:00 +34°C° 0 mm 2 m/s 740 mmHg 35%
    12:00 +35°C° 0 mm 2 m/s 740 mmHg 33%
    13:00 +36°C° 0 mm 3 m/s 739 mmHg 32%
    14:00 +35°C° 0 mm 3 m/s 739 mmHg 34%
    15:00 +35°C° 0 mm 3 m/s 739 mmHg 36%
    16:00 +35°C° 0 mm 3 m/s 739 mmHg 38%
    17:00 +31°C° 0 mm 2 m/s 739 mmHg 44%
    18:00 +29°C° 0 mm 2 m/s 739 mmHg 51%
    19:00 +27°C° 0 mm 1 m/s 739 mmHg 58%
    20:00 +26°C° 0 mm 1 m/s 739 mmHg 58%
    21:00 +25°C° 0 mm 1 m/s 740 mmHg 59%
    22:00 +25°C° 0 mm 1 m/s 740 mmHg 59%
    23:00 +25°C° 0 mm 1 m/s 740 mmHg 59%

    Poimâine, 30 Iulie, Duminică

    Timp Temperatura Precipitaţii Vânt Presiune Umiditate
    00:00 +24°C° 0 mm 1 m/s 740 mmHg 58%
    01:00 +24°C° 0 mm 1 m/s 740 mmHg 58%
    02:00 +24°C° 0 mm 1 m/s 740 mmHg 57%
    03:00 +24°C° 0 mm 1 m/s 740 mmHg 57%
    04:00 +23°C° 0 mm 1 m/s 740 mmHg 57%
    05:00 +25°C° 0 mm 1 m/s 740 mmHg 54%
    06:00 +27°C° 0 mm 1 m/s 740 mmHg 51%
    07:00 +29°C° 0 mm 1 m/s 740 mmHg 47%
    08:00 +31°C° 0 mm 1 m/s 740 mmHg 43%
    09:00 +33°C° 0 mm 1 m/s 740 mmHg 38%
    10:00 +35°C° 0 mm 1 m/s 740 mmHg 34%
    11:00 +36°C° 0 mm 2 m/s 739 mmHg 32%
    12:00 +37°C° 0 mm 3 m/s 739 mmHg 31%
    13:00 +38°C° 0 mm 3 m/s 739 mmHg 30%
    14:00 +37°C° 0 mm 3 m/s 738 mmHg 32%
    15:00 +36°C° 0 mm 3 m/s 738 mmHg 34%
    16:00 +36°C° 0 mm 3 m/s 738 mmHg 35%
    17:00 +32°C° 0 mm 2 m/s 738 mmHg 42%
    18:00 +30°C° 0 mm 2 m/s 738 mmHg 48%
    19:00 +28°C° 0 mm 1 m/s 738 mmHg 54%
    20:00 +27°C° 0,1 mm 1 m/s 738 mmHg 55%
    21:00 +26°C° 0,1 mm 1 m/s 739 mmHg 56%
    22:00 +26°C° 0,1 mm 1 m/s 739 mmHg 57%
    23:00 +26°C° 0 mm 1 m/s 739 mmHg 57%

    31 Iulie, Luni

    Timp Temperatura Precipitaţii Vânt Presiune Umiditate
    00:00 +25°C° 0 mm 1 m/s 739 mmHg 57%
    01:00 +25°C° 0 mm 1 m/s 739 mmHg 57%
    02:00 +25°C° 0 mm 1 m/s 738 mmHg 58%
    03:00 +24°C° 0 mm 1 m/s 738 mmHg 58%
    04:00 +24°C° 0 mm 2 m/s 738 mmHg 59%
    05:00 +26°C° 0 mm 1 m/s 738 mmHg 55%
    06:00 +28°C° 0 mm 1 m/s 739 mmHg 52%
    07:00 +30°C° 0 mm 1 m/s 739 mmHg 48%
    08:00 +32°C° 0 mm 1 m/s 739 mmHg 43%
    09:00 +35°C° 0 mm 2 m/s 739 mmHg 38%
    10:00 +37°C° 0 mm 2 m/s 739 mmHg 33%
    11:00 +37°C° 0 mm 2 m/s 738 mmHg 32%
    12:00 +38°C° 0 mm 3 m/s 738 mmHg 31%
    13:00 +38°C° 0 mm 4 m/s 738 mmHg 30%
    14:00 +38°C° 0,2 mm 3 m/s 737 mmHg 32%
    15:00 +37°C° 0,2 mm 3 m/s 737 mmHg 34%
    16:00 +37°C° 0,2 mm 3 m/s 737 mmHg 36%
    17:00 +35°C° 0 mm 3 m/s 737 mmHg 40%
    18:00 +32°C° 0 mm 2 m/s 737 mmHg 44%
    19:00 +29°C° 0 mm 2 m/s 737 mmHg 49%
    20:00 +29°C° 0 mm 2 m/s 738 mmHg 49%
    21:00 +28°C° 0 mm 2 m/s 738 mmHg 50%
    22:00 +27°C° 0 mm 2 m/s 738 mmHg 51%
    23:00 +26°C° 0,1 mm 2 m/s 738 mmHg 51%

    1 August, Marţi

    Timp Temperatura Precipitaţii Vânt Presiune Umiditate
    00:00 +26°C° 0,1 mm 2 m/s 738 mmHg 52%
    01:00 +25°C° 0,1 mm 2 m/s 738 mmHg 52%
    02:00 +25°C° 0 mm 2 m/s 738 mmHg 52%
    03:00 +24°C° 0 mm 2 m/s 738 mmHg 53%
    04:00 +24°C° 0 mm 2 m/s 738 mmHg 53%
    05:00 +26°C° 0 mm 2 m/s 739 mmHg 50%
    06:00 +28°C° 0 mm 2 m/s 739 mmHg 48%
    07:00 +29°C° 0 mm 2 m/s 739 mmHg 45%
    08:00 +31°C° 0 mm 2 m/s 739 mmHg 40%
    09:00 +35°C° 0 mm 2 m/s 739 mmHg 35%
    10:00 +37°C° 0 mm 2 m/s 739 mmHg 30%
    11:00 +38°C° 0 mm 2 m/s 739 mmHg 28%
    12:00 +38°C° 0 mm 3 m/s 738 mmHg 26%
    13:00 +39°C° 0 mm 3 m/s 738 mmHg 24%
    14:00 +40°C° 0 mm 4 m/s 738 mmHg 24%
    15:00 +40°C° 0 mm 4 m/s 738 mmHg 25%
    16:00 +38°C° 0 mm 4 m/s 738 mmHg 26%
    17:00 +36°C° 0 mm 4 m/s 738 mmHg 31%
    18:00 +33°C° 0 mm 3 m/s 738 mmHg 36%
    19:00 +29°C° 0 mm 3 m/s 738 mmHg 41%
    20:00 +29°C° 0 mm 3 m/s 738 mmHg 41%
    21:00 +28°C° 0 mm 2 m/s 739 mmHg 40%
    22:00 +27°C° 0 mm 2 m/s 739 mmHg 40%
    23:00 +26°C° 0 mm 2 m/s 739 mmHg 41%

    2 August, Miercuri

    Timp Temperatura Precipitaţii Vânt Presiune Umiditate
    00:00 +25°C° 0 mm 2 m/s 739 mmHg 42%
    01:00 +25°C° 0 mm 2 m/s 739 mmHg 44%
    02:00 +24°C° 0 mm 2 m/s 739 mmHg 45%
    03:00 +24°C° 0 mm 2 m/s 739 mmHg 47%
    04:00 +24°C° 0 mm 2 m/s 739 mmHg 49%
    05:00 +25°C° 0 mm 2 m/s 739 mmHg 47%
    06:00 +27°C° 0 mm 2 m/s 739 mmHg 45%
    07:00 +29°C° 0 mm 2 m/s 739 mmHg 42%
    08:00 +31°C° 0 mm 2 m/s 739 mmHg 37%
    09:00 +34°C° 0 mm 2 m/s 739 mmHg 32%
    10:00 +36°C° 0 mm 2 m/s 739 mmHg 27%
    11:00 +38°C° 0 mm 3 m/s 738 mmHg 25%
    12:00 +39°C° 0 mm 3 m/s 738 mmHg 22%
    13:00 +41°C° 0 mm 4 m/s 738 mmHg 20%
    14:00 +40°C° 0 mm 4 m/s 738 mmHg 20%
    15:00 +40°C° 0 mm 4 m/s 738 mmHg 21%
    16:00 +40°C° 0 mm 4 m/s 737 mmHg 21%
    17:00 +36°C° 0 mm 4 m/s 737 mmHg 25%
    18:00 +33°C° 0 mm 3 m/s 738 mmHg 30%
    19:00 +30°C° 0 mm 3 m/s 738 mmHg 34%
    20:00 +28°C° 0 mm 3 m/s 738 mmHg 34%
    21:00 +27°C° 0 mm 3 m/s 738 mmHg 33%
    22:00 +26°C° 0 mm 3 m/s 739 mmHg 33%
    23:00 +26°C° 0 mm 3 m/s 739 mmHg 35%
    Arată mai mult